Home > Weather > Rathenow > Past weeks

Flag for Germany Weather for the Past 2 Weeks in Rathenow, Brandenburg, Germany

Now
39 °F

Clear.


Feels Like: 31 °F
Forecast: 34 / 41 °F
Wind: 14 mph from West

Location: Berlin-Tegel

Current Time: Feb 11, 2016 at 7:24:06 PM

Latest Report: Feb 11, 2016 at 6:50 PM


Visibility: 10 mi

Pressure: 29.59 "Hg

Humidity: 75%

Dew point: 32 °F

Location of RathenowLocation

Historic Weather in Rathenow — Graph

°F

Rathenow Temperature Yesterday

Maximum temperature yesterday: 50 °F (at 12:20 AM)
Minimum temperature yesterday: 37 °F (at 6:50 PM)
Average temperature yesterday: 41 °F

High & Low Weather Summary for the Past Weeks

 TemperatureHumidityPressure
High54 °F (Jan 27, 6:50 PM)100% (Feb 1, 12:20 PM)30.24 "Hg (Feb 1, 12:20 PM)
Low30 °F (Feb 5, 5:20 AM)44% (Feb 2, 1:20 PM)28.94 "Hg (Feb 9, 9:50 PM)
Average43 °F74%29.76 "Hg
* Reported Jan 27 6:20 PM — Feb 11 6:20 PM, Rathenow, Weather by CustomWeather, © 2016

Note: Actual official high and low records may vary slightly from our data, if they occured in-between our weather recording intervals... More about our weather records

Advertising

Rathenow Weather History for the Previous 24 Hours

 ConditionsComfort  
Time TempWeatherWind HumidityBarometerVisibility
6:20 PM
Thu, Feb 11
39 °FClear.13 mph75%29.56 "Hg10 mi
5:50 PM41 °FPassing clouds.15 mph70%29.56 "HgN/A
5:20 PM43 °FPartly cloudy.12 mph66%29.56 "HgN/A
4:50 PM41 °FBroken clouds.9 mph76%29.56 "HgN/A
4:20 PM41 °FBroken clouds.9 mph76%29.56 "HgN/A
3:50 PM41 °FSprinkles. Broken clouds.17 mph76%29.56 "HgN/A
3:20 PM43 °FScattered showers. Partly sunny.13 mph71%29.53 "HgN/A
2:50 PM41 °FBroken clouds.13 mph81%29.53 "HgN/A
2:20 PM41 °FBroken clouds.16 mph81%29.53 "HgN/A
1:50 PM39 °FBroken clouds.16 mph87%29.53 "HgN/A
1:20 PM41 °FLight rain. Broken clouds.18 mph76%29.53 "HgN/A
12:50 PM41 °FLight rain. Broken clouds.18 mph76%29.53 "HgN/A
12:20 PM41 °FLight rain. Broken clouds.17 mph76%29.53 "HgN/A
11:50 AM39 °FLight rain. Broken clouds.18 mph87%29.53 "HgN/A
11:20 AM39 °FLight rain. Partly sunny.16 mph87%29.53 "HgN/A
10:50 AM39 °FLight rain. Broken clouds.16 mph87%29.53 "HgN/A
10:20 AM39 °FLight rain. Broken clouds.20 mph81%29.50 "HgN/A
9:50 AM39 °FLight rain. Broken clouds.21 mph87%29.50 "HgN/A
9:20 AM39 °FLight rain. Partly sunny.20 mph81%29.50 "HgN/A
8:50 AM39 °FLight rain. Partly sunny.18 mph81%29.47 "HgN/A
8:20 AM39 °FLight rain. Partly sunny.21 mph87%29.47 "HgN/A
7:50 AM41 °FLight rain. Partly sunny.17 mph81%29.47 "HgN/A
7:20 AM41 °FPassing clouds.17 mph81%29.45 "HgN/A
6:50 AM39 °FPassing clouds.20 mph87%29.45 "HgN/A
6:20 AM39 °FLight rain. Partly cloudy.17 mph93%29.42 "HgN/A
5:20 AM41 °FLight rain. Passing clouds.17 mph81%29.42 "HgN/A
4:50 AM41 °FLight rain. Passing clouds.15 mph87%29.42 "HgN/A
4:20 AM41 °FLight rain. Passing clouds.16 mph87%29.39 "HgN/A
3:50 AM41 °FPassing clouds.17 mph87%29.39 "HgN/A
3:20 AM41 °FPassing clouds.16 mph87%29.39 "HgN/A
2:50 AM41 °FPassing clouds.15 mph87%29.39 "HgN/A
2:20 AM41 °FPassing clouds.14 mph81%29.39 "HgN/A
1:50 AM39 °FPassing clouds.13 mph87%29.36 "HgN/A
1:20 AM39 °FPassing clouds.12 mph87%29.36 "HgN/A
12:50 AM39 °FPassing clouds.13 mph87%29.36 "HgN/A
12:20 AM39 °FLight rain. Passing clouds.13 mph87%29.36 "HgN/A
11:50 PM
Wed, Feb 10
39 °FLight rain. Passing clouds.10 mph87%29.36 "HgN/A
10:50 PM39 °FPassing clouds.10 mph87%29.36 "HgN/A
10:20 PM39 °FPassing clouds.12 mph87%29.36 "HgN/A
9:50 PM39 °FPassing clouds.10 mph87%29.36 "HgN/A
9:20 PM39 °FLight rain. Passing clouds.9 mph87%29.36 "HgN/A
8:50 PM39 °FLight rain. Passing clouds.9 mph87%29.36 "HgN/A
8:20 PM39 °FLight rain. Passing clouds.12 mph81%29.36 "HgN/A
7:50 PM41 °FPassing clouds.8 mph76%29.33 "HgN/A
7:20 PM41 °FPassing clouds.8 mph76%29.33 "HgN/A
Weather by CustomWeather, © 2016

See weather overviewHow to use our weather pages